Flight Track Log - Related Links

Times and Time Zones

All times are in EDT time to prevent confusion due to time zone crossing. See the EGF4247 flight status page for this flight to view local times or setup timezone preferences in your user account.

Time Position Orientation Groundspeed Altitude Reporting Facility
EDT Latitude Longitude Course Direction KTS MPH feet Rate Location/Type
Fri 04:08:15 PM 42.9500 -78.7167 270° West 164 189 1,300  Level Buffalo TRACON
Fri 04:08:57 PM 42.9833 -78.6833 36° Northeast 167 192 2,700 1,941 Climbing Buffalo TRACON
Fri 04:09:57 PM 43.0333 -78.6833 360° North 227 261 4,600 2,050 Climbing Buffalo TRACON
Fri 04:10:00 PM 42.9500 -79.0646 270° West  Level FlightAware Approximate
Fri 04:10:57 PM 43.0667 -78.7500 304° West 247 284 6,800  Level Buffalo TRACON
Fri 04:11:00 PM 42.9595 -79.1806 277° West  Level FlightAware Approximate
Fri 04:11:57 PM 43.0500 -78.8500 257° West 276 318 8,500  Level Buffalo TRACON
Fri 04:12:00 PM 42.9667 -79.2969 270° West  Level FlightAware Approximate
Fri 04:12:58 PM 43.0500 -78.9500 270° West 282 325 10,700  Level Buffalo TRACON
Fri 04:13:00 PM 42.9667 -79.4138 270° West  Level FlightAware Approximate
Fri 04:13:56 PM 43.0500 -79.0333 270° West 300 345 12,100  Level Toronto Center
Fri 04:14:56 PM 43.0500 -79.1833 270° West 320 368 13,800 1,300 Climbing Toronto Center
Fri 04:15:56 PM 43.0500 -79.2833 270° West 330 380 14,700 950 Climbing Toronto Center
Fri 04:16:56 PM 43.0500 -79.4333 270° West 350 403 15,700 1,100 Climbing Toronto Center
Fri 04:17:56 PM 43.0500 -79.5667 270° West 360 414 16,900 1,400 Climbing Toronto Center
Fri 04:18:56 PM 43.0500 -79.7000 270° West 360 414 18,500 1,550 Climbing Toronto Center
Fri 04:19:56 PM 43.0500 -79.8333 270° West 350 403 20,000 1,200 Climbing Toronto Center
Fri 04:20:56 PM 43.0500 -79.9833 270° West 350 403 20,900 950 Climbing Toronto Center
Fri 04:21:56 PM 43.0500 -80.0833 270° West 360 414 21,900 1,000 Climbing Toronto Center
Fri 04:22:56 PM 43.0500 -80.2500 270° West 370 426 22,900 750 Climbing Toronto Center
Fri 04:23:56 PM 43.0500 -80.3833 270° West 380 437 23,400 900 Climbing Toronto Center
Fri 04:24:56 PM 43.0333 -80.5500 262° West 380 437 24,700 1,250 Climbing Toronto Center
Fri 04:25:56 PM 43.0333 -80.6667 270° West 370 426 25,900 1,150 Climbing Toronto Center
Fri 04:26:56 PM 43.0167 -80.8167 261° West 360 414 27,000 1,000 Climbing Toronto Center
Fri 04:27:56 PM 43.0167 -80.9500 270° West 360 414 27,900 950 Climbing Toronto Center
Fri 04:28:56 PM 43.0167 -81.1000 270° West 360 414 28,900 1,000 Climbing Toronto Center
Fri 04:29:56 PM 43.0167 -81.2000 270° West 360 414 29,900 550 Climbing Toronto Center
Fri 04:30:56 PM 43.0167 -81.3500 270° West 360 414 30,000 50 Climbing Toronto Center
Fri 04:31:56 PM 43.0167 -81.5000 270° West 380 437 30,000  Level Toronto Center
Fri 04:32:56 PM 43.0167 -81.6667 270° West 390 449 30,000  Level Toronto Center
Fri 04:33:56 PM 43.0167 -81.8000 270° West 390 449 30,000  Level Toronto Center
Fri 04:34:56 PM 43.0000 -81.9667 262° West 400 460 30,000  Level Toronto Center
Fri 04:35:56 PM 43.0000 -82.1000 270° West 400 460 30,000  Level Toronto Center
Fri 04:36:56 PM 43.0000 -82.2500 270° West 400 460 30,000  Level Toronto Center
Fri 04:37:56 PM 43.0000 -82.4167 270° West 400 460 30,000  Level Toronto Center
Fri 04:38:56 PM 43.0000 -82.5500 270° West 400 460 30,000  Level Toronto Center
Fri 04:39:44 PM 43.0019 -82.6753 271° West 402 463 30,000  Level Cleveland Center
Fri 04:40:44 PM 42.9969 -82.8286 267° West 402 463 30,000  Level Cleveland Center
Fri 04:41:44 PM 42.9919 -82.9761 267° West 402 463 30,000  Level Cleveland Center
Fri 04:42:44 PM 42.9886 -83.1264 268° West 402 463 30,000  Level Cleveland Center
Fri 04:43:44 PM 42.9831 -83.2794 267° West 402 463 30,000  Level Cleveland Center
Fri 04:44:44 PM 42.9775 -83.4294 267° West 402 463 30,000  Level Cleveland Center
Fri 04:45:44 PM 42.9736 -83.5797 268° West 402 463 30,000  Level Cleveland Center
Fri 04:46:44 PM 42.9650 -83.7469 266° West 402 463 30,000  Level Cleveland Center
Fri 04:47:44 PM 42.9525 -83.8964 264° West 407 468 30,000  Level Cleveland Center
Fri 04:48:44 PM 42.9375 -84.0461 262° West 402 463 30,000  Level Cleveland Center
Fri 04:49:44 PM 42.9228 -84.1928 262° West 402 463 30,000  Level Cleveland Center
Fri 04:50:05 PM 42.9197 -84.2331 264° West 396 456 30,000  Level Chicago Center
Fri 04:51:07 PM 42.9056 -84.3808 263° West 395 455 30,000  Level Chicago Center
Fri 04:52:09 PM 42.8903 -84.5300 262° West 398 458 30,000  Level Chicago Center
Fri 04:53:12 PM 42.8747 -84.6775 262° West 395 455 30,000  Level Chicago Center
Fri 04:54:14 PM 42.8561 -84.8575 262° West 400 460 30,000  Level Chicago Center
Fri 04:55:16 PM 42.8403 -85.0069 262° West 400 460 30,000  Level Chicago Center
Fri 04:56:18 PM 42.8239 -85.1583 262° West 404 465 30,000  Level Chicago Center
Fri 04:57:20 PM 42.8089 -85.3092 262° West 403 464 30,000  Level Chicago Center
Fri 04:58:22 PM 42.7911 -85.4600 261° West 403 464 30,000 -919 Level Chicago Center
Fri 04:59:24 PM 42.7675 -85.6106 258° West 406 467 28,100 -1,935 Descending Chicago Center
Fri 05:00:26 PM 42.7394 -85.7617 256° West 408 470 26,000 -2,274 Descending Chicago Center
Fri 05:01:28 PM 42.7061 -85.9431 256° West 409 471 23,400 -2,274 Descending Chicago Center
Fri 05:02:30 PM 42.6786 -86.0936 256° West 409 471 21,300 -1,645 Descending Chicago Center
Fri 05:03:32 PM 42.6528 -86.2369 256° West 394 453 20,000 -629 Descending Chicago Center
Fri 05:04:34 PM 42.6253 -86.3783 255° West 388 447 20,000  Level Chicago Center
Fri 05:05:37 PM 42.5989 -86.5261 256° West 400 460 20,000 -576 Level Chicago Center
Fri 05:06:39 PM 42.5703 -86.6725 255° West 400 460 18,800 -1,694 Descending Chicago Center
Fri 05:07:41 PM 42.5386 -86.8164 253° West 401 461 16,500 -2,323 Descending Chicago Center
Fri 05:08:43 PM 42.4936 -86.9769 249° West 382 440 14,000 -2,226 Descending Chicago Center
Fri 05:09:45 PM 42.4558 -87.1094 249° West 378 435 11,900 -1,887 Descending Chicago Center
Fri 05:10:47 PM 42.4200 -87.2414 250° West 375 432 10,100 -919 Descending Chicago Center
Fri 05:11:49 PM 42.3861 -87.3625 249° West 350 403 10,000 -48 Descending Chicago Center
Fri 05:12:51 PM 42.3525 -87.4856 250° West 307 353 10,000  Level Chicago Center
Fri 05:13:53 PM 42.3064 -87.5714 234° Southwest 299 344 10,000 -194 Level Chicago Center
Fri 05:14:55 PM 42.2431 -87.6372 218° Southwest 290 334 9,600 -484 Descending Chicago Center
Fri 05:15:57 PM 42.1806 -87.7008 217° Southwest 284 327 9,000 -720 Descending Chicago Center
Fri 05:17:00 PM 42.1194 -87.7650 218° Southwest 281 323 8,100 -624 Descending Chicago Center
Fri 05:18:02 PM 42.0875 -87.8736 248° West 273 314 7,700 -538 Descending Chicago Center
Fri 05:18:18 PM 42.0833 -87.9000 258° West 275 316 7,400 -512 Descending Chicago TRACON
Fri 05:19:24 PM 42.0667 -88.0167 259° West 278 320 7,000 -476 Descending Chicago TRACON
Fri 05:20:24 PM 42.0500 -88.1167 257° West 271 312 6,400 -577 Descending Chicago TRACON
Fri 05:21:08 PM 42.0500 -88.1742 270° West 276 318 6,000 -396 Descending Chicago Center
Fri 05:22:10 PM 42.0364 -88.2925 261° West 273 314 5,700 -435 Descending Chicago Center
Fri 05:23:12 PM 41.9872 -88.3383 215° Southwest 248 285 5,100 -339 Descending Chicago Center
Fri 05:24:14 PM 41.9675 -88.2856 117° Southeast 206 237 5,000 -48 Descending Chicago Center
Fri 05:25:16 PM 41.9669 -88.2222 91° East 175 201 5,000 -387 Level Chicago Center
Fri 05:26:18 PM 41.9678 -88.1511 89° East 184 212 4,200 -774 Descending Chicago Center

Login

Don't have an account? Register now (free) for customized features, flight alerts, and more!